Weather History for Winona, MN

Change the Weather History Date:

Sunday, April 13, 2014

  Actual Average Record
Temperature  
Mean Temperature 40 °F -  
Max Temperature 48 °F 54 °F 80 °F (2006)
Min Temperature 33 °F 34 °F 22 °F (1992)
Degree Days  
Heating Degree Days 24    
Moisture  
Dew Point 40 °F    
Average Humidity 91    
Maximum Humidity 100    
Minimum Humidity 81    
Precipitation  
Precipitation 0.00 in - - ()
Sea Level Pressure  
Sea Level Pressure 29.76 in    
Wind  
Wind Speed 4 mph (North)    
Max Wind Speed 12 mph    
Max Gust Speed 16 mph    
Visibility 6 miles    
Events Rain    
Averages and records for this station are not official NWS values.
T = Trace of Precipitation, MM = Missing Value Source: NWS Daily Summary

Daily Weather History Graph

Daily Weather History Graph

Search for Another Location

Airport:

Trip Planner

Search our weather history database for the weather conditions in past years. The results will help you decide how hot, cold, wet, or windy it might be!

Date:

Astronomy

Apr. 13, 2014 Rise Set
Actual Time 6:26 AM CDT 7:48 PM CDT
Civil Twilight 5:56 AM CDT 8:18 PM CDT
Nautical Twilight 5:20 AM CDT 8:54 PM CDT
Astronomical Twilight 4:42 AM CDT 9:33 PM CDT
Moon 6:24 PM CDT (4/13) 5:29 AM CDT (4/13)
Length of Visible Light 14h 21m
Length of Day
13h 21m
Waxing Gibbous, 97% of the Moon is Illuminated
Apr 13
Waxing Gibbous
Apr 15
Full
Apr 22
Last Quarter
Apr 29
New
May 6
First Quarter

Hourly Weather History & Observations

Time (CDT) Temp. Windchill Dew Point Humidity Pressure Visibility Wind Dir Wind Speed Gust Speed Precip Events Conditions
12:00 AM 42.8 °F 40.1 °F 41.0 °F 93% 29.71 in 5.0 mi ESE 4.6 mph - N/A   Overcast
12:20 AM 42.8 °F 38.6 °F 41.0 °F 93% 29.70 in 5.0 mi East 6.9 mph - N/A   Overcast
12:40 AM 42.8 °F 40.1 °F 41.0 °F 93% 29.70 in 5.0 mi NE 4.6 mph - N/A   Overcast
1:00 AM 42.8 °F 39.3 °F 41.0 °F 93% 29.69 in 5.0 mi NNE 5.8 mph - N/A   Overcast
1:20 AM 42.8 °F 39.3 °F 41.0 °F 93% 29.70 in 5.0 mi ENE 5.8 mph - N/A   Overcast
1:40 AM 42.8 °F 40.1 °F 41.0 °F 93% 29.71 in 5.0 mi NNE 4.6 mph - N/A   Overcast
2:00 AM 42.8 °F 41.1 °F 41.0 °F 93% 29.72 in 4.0 mi North 3.5 mph - N/A   Overcast
2:20 AM 42.8 °F 41.1 °F 41.0 °F 93% 29.73 in 4.0 mi NNE 3.5 mph - N/A   Overcast
2:40 AM 42.8 °F 41.1 °F 41.0 °F 93% 29.75 in 5.0 mi ENE 3.5 mph - N/A   Overcast
3:00 AM 42.8 °F 41.1 °F 41.0 °F 93% 29.75 in 5.0 mi NE 3.5 mph - N/A   Overcast
3:20 AM 42.8 °F 40.1 °F 41.0 °F 93% 29.75 in 5.0 mi ENE 4.6 mph - N/A   Overcast
3:40 AM 42.8 °F 41.1 °F 41.0 °F 93% 29.74 in 5.0 mi NE 3.5 mph - N/A   Overcast
4:01 AM 42.8 °F - 41.0 °F 93% 29.76 in 5.0 mi Calm Calm - N/A   Overcast
4:20 AM 42.8 °F - 41.0 °F 93% 29.76 in 5.0 mi Calm Calm - N/A   Overcast
4:40 AM 42.8 °F - 41.0 °F 93% 29.76 in 5.0 mi Calm Calm - N/A   Overcast
5:01 AM 42.8 °F - 41.0 °F 93% 29.75 in 5.0 mi Calm Calm - N/A   Overcast
5:20 AM 42.8 °F 40.1 °F 41.0 °F 93% 29.75 in 5.0 mi NNE 4.6 mph - N/A   Overcast
5:40 AM 42.8 °F - 41.0 °F 93% 29.75 in 5.0 mi Calm Calm - N/A   Overcast
6:00 AM 42.8 °F - 41.0 °F 93% 29.74 in 5.0 mi Calm Calm - N/A   Overcast
6:20 AM 42.8 °F 41.1 °F 41.0 °F 93% 29.75 in 5.0 mi North 3.5 mph - N/A   Overcast
6:41 AM 42.8 °F - 41.0 °F 93% 29.76 in 5.0 mi Calm Calm - N/A   Overcast
7:00 AM 42.8 °F - 41.0 °F 93% 29.76 in 7.0 mi Calm Calm - N/A   Overcast
7:20 AM 42.8 °F 41.1 °F 41.0 °F 93% 29.77 in 5.0 mi North 3.5 mph - N/A   Overcast
7:41 AM 42.8 °F - 41.0 °F 93% 29.78 in 7.0 mi Calm Calm - N/A   Overcast
8:00 AM 42.8 °F - 41.0 °F 93% 29.79 in 7.0 mi Calm Calm - N/A   Overcast
8:20 AM 42.8 °F - 41.0 °F 93% 29.79 in 3.0 mi Calm Calm - N/A   Overcast
8:41 AM 42.8 °F - 41.0 °F 93% 29.79 in 7.0 mi Calm Calm - N/A   Overcast
9:00 AM 42.8 °F 40.1 °F 41.0 °F 93% 29.79 in 10.0 mi NNW 4.6 mph - N/A   Overcast
9:20 AM 42.8 °F 41.1 °F 41.0 °F 93% 29.79 in 10.0 mi North 3.5 mph - N/A   Overcast
9:41 AM 44.6 °F 43.1 °F 41.0 °F 87% 29.78 in 10.0 mi North 3.5 mph - N/A   Overcast
10:00 AM 44.6 °F 41.4 °F 41.0 °F 87% 29.76 in 10.0 mi North 5.8 mph - N/A   Overcast
10:41 AM 46.4 °F - 42.8 °F 87% 29.81 in 10.0 mi Calm Calm - N/A   Overcast
11:00 AM 46.4 °F - 42.8 °F 87% 29.82 in 10.0 mi Calm Calm - N/A   Overcast
11:20 AM 46.4 °F - 41.0 °F 81% 29.83 in 10.0 mi Calm Calm - N/A   Overcast
11:40 AM 46.4 °F - 41.0 °F 81% 29.83 in 10.0 mi Calm Calm - N/A   Overcast
12:00 PM 46.4 °F - 41.0 °F 81% 29.82 in 10.0 mi Calm Calm - N/A   Overcast
12:20 PM 46.4 °F - 42.8 °F 87% 29.81 in 10.0 mi Calm Calm - N/A   Overcast
12:40 PM 46.4 °F 43.5 °F 42.8 °F 87% 29.80 in 10.0 mi NNW 5.8 mph - N/A   Overcast
1:00 PM 48.2 °F - 42.8 °F 82% 29.80 in 10.0 mi North 5.8 mph - N/A   Overcast
1:20 PM 48.2 °F - 42.8 °F 82% 29.79 in 10.0 mi North 3.5 mph - N/A   Overcast
1:40 PM 48.2 °F - 42.8 °F 82% 29.79 in 10.0 mi North 5.8 mph - N/A Rain Light Rain
2:00 PM 46.4 °F 45.2 °F 42.8 °F 87% 29.78 in 7.0 mi North 3.5 mph - N/A Rain Light Rain
2:20 PM 46.4 °F 43.5 °F 42.8 °F 87% 29.78 in 4.0 mi NNW 5.8 mph - N/A Rain Rain
2:40 PM 44.6 °F 38.8 °F 41.0 °F 87% 29.79 in 4.0 mi NNW 11.5 mph - N/A Rain Rain
3:00 PM 42.8 °F 39.3 °F 41.0 °F 93% 29.77 in 3.0 mi North 5.8 mph - N/A Rain Rain
3:21 PM 42.8 °F 39.3 °F 41.0 °F 93% 29.77 in 3.0 mi North 5.8 mph - N/A Rain Rain
3:40 PM 42.8 °F 38.6 °F 41.0 °F 93% 29.76 in 4.0 mi North 6.9 mph - N/A Rain Rain
4:00 PM 42.8 °F 39.3 °F 41.0 °F 93% 29.76 in 5.0 mi North 5.8 mph - N/A Rain Rain
4:21 PM 42.8 °F 38.0 °F 41.0 °F 93% 29.75 in 4.0 mi North 8.1 mph - N/A Rain Rain
4:40 PM 42.8 °F 38.6 °F 41.0 °F 93% 29.75 in 5.0 mi North 6.9 mph - N/A Rain Rain
5:00 PM 42.8 °F 39.3 °F 39.2 °F 87% 29.75 in 10.0 mi North 5.8 mph - N/A Rain Light Rain
5:20 PM 42.8 °F 38.6 °F 37.4 °F 81% 29.75 in 7.0 mi North 6.9 mph - N/A Rain Rain
5:40 PM 41.0 °F 37.1 °F 37.4 °F 87% 29.75 in 7.0 mi North 5.8 mph - N/A Rain Light Rain
6:01 PM 41.0 °F 38.0 °F 37.4 °F 87% 29.75 in 7.0 mi North 4.6 mph - N/A Rain Light Rain
6:20 PM 41.0 °F 35.8 °F 37.4 °F 87% 29.75 in 7.0 mi North 8.1 mph - N/A Rain Light Rain
6:40 PM 41.0 °F 35.8 °F 37.4 °F 87% 29.75 in 5.0 mi North 8.1 mph - N/A Rain Rain
7:01 PM 41.0 °F 37.1 °F 37.4 °F 87% 29.76 in 7.0 mi North 5.8 mph - N/A Rain Light Rain
7:20 PM 41.0 °F 36.4 °F 37.4 °F 87% 29.76 in 7.0 mi North 6.9 mph - N/A Rain Light Rain
7:40 PM 39.2 °F 33.0 °F 35.6 °F 87% 29.76 in 7.0 mi North 9.2 mph - N/A Rain Light Rain
8:01 PM 37.4 °F 32.8 °F 35.6 °F 93% 29.76 in 5.0 mi North 5.8 mph - N/A Rain Rain
8:20 PM 37.4 °F 31.4 °F 35.6 °F 93% 29.76 in 7.0 mi North 8.1 mph - N/A Rain Light Rain
8:40 PM 37.4 °F 32.8 °F 35.6 °F 93% 29.77 in 5.0 mi North 5.8 mph - N/A Rain Light Rain
9:01 PM 35.6 °F 29.9 °F 33.8 °F 93% 29.78 in 7.0 mi North 6.9 mph - N/A Rain Rain
9:20 PM 35.6 °F 31.7 °F 33.8 °F 93% 29.78 in 5.0 mi North 4.6 mph - N/A Rain Light Rain
9:40 PM 35.6 °F 30.7 °F 33.8 °F 93% 29.78 in 5.0 mi NNW 5.8 mph - N/A Rain Rain
10:01 PM 33.8 °F 28.6 °F 33.8 °F 100% 29.78 in 4.0 mi North 5.8 mph - N/A Rain Rain
10:20 PM 35.6 °F 30.7 °F 33.8 °F 93% 29.78 in 5.0 mi North 5.8 mph - N/A Rain Rain
10:40 PM 35.6 °F 29.9 °F 33.8 °F 93% 29.77 in 7.0 mi NNW 6.9 mph - N/A Rain Light Rain
11:00 PM 35.6 °F 29.2 °F 33.8 °F 93% 29.77 in 7.0 mi NNW 8.1 mph - N/A Rain Light Rain
11:20 PM 35.6 °F 28.0 °F 33.8 °F 93% 29.76 in 7.0 mi North 10.4 mph 16.1 mph N/A Rain Light Rain
11:40 PM 33.8 °F 27.0 °F 33.8 °F 100% 29.76 in 7.0 mi North 8.1 mph 16.1 mph N/A Rain Light Rain